Content
SEND FEEDBACK

Daily
Averages
Monthly
Summary
United States of America

BUNCOM, OREGON


Home > North America > United States > Oregon
Elevation: 1930 feet     Latitude: 42 09N     Longitude: 122 58W

WEATHER
 
SELECT A DAY
Number of Records: 201,041;   Date Range: 1/1/95 - 10/20/14
 
SHARE

PRINT THIS DATA

[ ← Previous Day ]
WEATHER ALMANAC - JANUARY 23, 2013
[ Next Day → ]
[ °C ]   °F
Weather ElementAverageHighLow
Temperature45.8 °F57.9 °F (10:53 am)33.1 °F (2:53 am)
Dewpoint38.4 °F45 °F (2:53 pm)30 °F (1:53 am)
Humidity78.7 %97 % (8:53 pm)38 % (8:23 am)
Barometer29.97 in30.12 in (11:38 pm)29.83 in (8:23 am)
Wind Speed6.2 mph24.2 mph (9:53 am)
Wind Gust36.8 mph (9:53 am)
Weather ElementAverage
Visibility8.1 mi
Wind DirectionESE (116.7 °)

Weather ElementTotal
Precipitation0.05 in
Heating Degree Days19.5 (Base 65)
Averaged from 27 records on January 23, 2013
WEATHER CONDITIONS BREAKOUT
WIND DIRECTION BREAKOUT
WEATHER BY HOUR - JANUARY 23, 2013
[ °C ]   °F
Local TimeTemperatureDewpointHumidityBarometerVisibilityWind DirectionWind SpeedGust SpeedPrecipitationEventsConditions
1:53 AM34.0 °F30.0 °F85 %29.95 in7.0 miCalmClear
2:53 AM33.1 °F30.9 °F92 %29.93 in8.0 miCalmClear
3:53 AM34.0 °F30.9 °F89 %29.90 in9.0 miCalmClear
4:53 AM34.0 °F30.9 °F89 %29.89 in9.0 miNNW (330°)3.5 mphClear
5:53 AM34.0 °F30.9 °F89 %29.89 in10.0 miCalmClear
6:53 AM35.1 °F30.9 °F85 %29.87 in10.0 miCalmMostly Cloudy
7:53 AM36.0 °F30.9 °F82 %29.86 in10.0 miNW (310°)4.6 mphScattered Clouds
8:23 AM55.4 °F30.2 °F38 %29.83 in10.0 miSSE (160°)19.6 mph27.6 mphMostly Cloudy
8:53 AM57.0 °F32.0 °F39 %29.83 in10.0 miSSE (150°)21.9 mph28.8 mph0.00 inRainLight Rain
9:53 AM57.0 °F35.1 °F44 %29.86 in10.0 miSE (140°)24.2 mph36.8 mph0.00 inRainLight Rain
10:53 AM57.9 °F39.0 °F49 %29.88 in10.0 miSSE (160°)17.3 mph26.5 mph0.00 inRainLight Rain
11:53 AM57.9 °F39.9 °F51 %29.90 in10.0 miSSW (200°)11.5 mph0.00 inOvercast
12:53 PM55.9 °F39.0 °F53 %29.90 in10.0 miSSE (150°)24.2 mph32.2 mph0.00 inRainLight Rain
1:53 PM57.0 °F39.9 °F53 %29.91 in10.0 miSSE (160°)11.5 mph0.01 inRainLight Rain
2:53 PM52.0 °F45.0 °F77 %29.93 in10.0 miWNW (300°)9.2 mph0.00 inOvercast
3:53 PM48.0 °F43.0 °F83 %29.95 in10.0 miNorth (360°)3.5 mph0.00 inOvercast
4:53 PM46.9 °F44.1 °F90 %29.97 in10.0 miNorth (360°)4.6 mphOvercast
5:53 PM46.9 °F44.1 °F90 %30.01 in9.0 miCalm0.00 inRainLight Rain
6:53 PM46.4 °F44.6 °F93 %30.03 in7.0 miNW (320°)4.6 mphRainLight Rain
7:53 PM46.0 °F44.1 °F93 %30.06 in7.0 miNE (50°)6.9 mph0.04 inRainLight Rain
8:53 PM45.0 °F44.1 °F97 %30.08 in6.0 miCalm0.00 inOvercast
9:53 PM45.0 °F43.0 °F93 %30.10 in5.0 miCalmOvercast
10:17 PM44.6 °F42.8 °F93 %30.10 in6.0 miCalmOvercast
10:53 PM45.0 °F44.1 °F97 %30.11 in5.0 miCalmOvercast
11:02 PM44.6 °F42.8 °F93 %30.11 in5.0 miCalmOvercast
11:38 PM44.6 °F42.8 °F93 %30.12 in2.5 miCalm0.00 inRainLight Rain
11:53 PM44.1 °F43.0 °F96 %30.12 in3.0 miCalm0.00 inRainLight Rain
Hourly data recorded from KMFR, located miles away from Buncom, Oregon







STORIES FROM OUR PARTNERS